SL-3 R/B

基本信息
目录编号:
6660
目录名称:
SL-3 R/B
国际标识:
1973-034B
轨道中心:
EARTH
物体状态:
在轨
发射日期:
1973-05-29 UTC
国别:
俄罗斯(独联体) (CIS)
轨道信息
数据来源: 国际轨道数据
星历时间: 2026-09-13T00:54:55+0800
半长轴: 7250.217km
偏心率: 0.0045897
轨道倾角: 81.234°
近地点辐角: 328.193°
升交点赤经: 338.120°
平近点角: 31.647°
近地点: 838.803km
远地点: 905.357km
周期: 102.397分钟
每日圈数: 14.062945
详细信息
发射场:
PKMTR
轨道高度:
LEO
数据来源:
AOE Integration Group
参考系:
TEME
时间系统:
UTC
历元类型:
SGP4
2D轨道图
3D轨道图
轨道高度分析图
轨道倾角分析图
轨道综合分析图
查看轨道综合分析图